Regional Weather Roundup
Issued by NWS

Home | Current Version | Previous Version | Text Only | Print | Product List | Glossary On
Versions: 1 2 3 4 5 6 7 8 9 10 11 12 13 14 15 16 17 18 19 20 21 22 23 24 25 26 27 28 29 30 31 32 33 34 35 36 37 38 39 40 41 42 43 44 45 46 47 48 49
000
ASUS45 KREV 220810
RWRNV
NEVADA REGIONAL WEATHER ROUNDUP
NATIONAL WEATHER SERVICE RENO NV
1200 AM PST MON DEC 22 2014

NOTE: "FAIR" INDICATES FEW OR NO CLOUDS BELOW 12,000 FEET WITH NO
SIGNIFICANT WEATHER AND/OR OBSTRUCTIONS TO VISIBILITY.

NVZ001-003-004-220900-
WESTERN NEVADA

CITY           SKY/WX    TMP DP  RH WIND       PRES   REMARKS
RENO           CLEAR     46  38  73 CALM      30.30S
CARSON CITY    FAIR      39  34  81 NW6       30.32S
MINDEN         FAIR      34  32  93 SE9       30.33
SLIDE MTN        N/A     37  21  52 N21         N/A
PYRAMID LAKE     N/A     55 N/A N/A SE3         N/A
FALLON         CLEAR     50  38  63 S7        30.25F
LOVELOCK       CLEAR     46  38  73 S6        30.23R
HAWTHORNE      CLEAR     45  36  70 CALM      30.28F
$$

NVZ002-CAZ072-073-220900-
NORTHERN AND CENTRAL SIERRA

CITY           SKY/WX    TMP DP  RH WIND       PRES   REMARKS
S. LAKE TAHOE  CLEAR     31  27  85 S6        30.36F
TRUCKEE        CLEAR     30  28  93 CALM      30.35F
SQUAW VLY 8000   N/A     32  32 100 CALM        N/A
SUSANVILLE     CLEAR     46  39  76 CALM      30.28
BLUE CANYON    CLEAR     47  39  74 NW3       30.33F
MAMMOTH LAKES  FAIR      36  21  55 N5        30.36S
BRIDGEPORT     FAIR      28  23  81 CALM      30.36R
$$

NVZ030-031-036-220900-
NORTHERN NEVADA

CITY           SKY/WX    TMP DP  RH WIND       PRES   REMARKS
ELKO           CLOUDY    45  42  89 W12       30.12F
WINNEMUCCA     CLOUDY    51  39  63 W14G22    30.19S
WENDOVER       PTCLDY    50  34  53 NW17G23   30.04R
$$

NVZ035-037-220900-
CENTRAL NEVADA

CITY           SKY/WX    TMP DP  RH WIND       PRES   REMARKS
ELY            LGT RAIN  43  39  86 SW3       30.18S
EUREKA           N/A     46  38  73 NW16G24   30.20F
$$

NVZ013-014-220900-
SOUTH CENTRAL NEVADA

CITY           SKY/WX    TMP DP  RH WIND       PRES   REMARKS
TONOPAH        CLEAR     48  37  65 NW26G36   30.23F
$$

NVZ017-020-022-220900-
SOUTHERN NEVADA

CITY           SKY/WX    TMP DP  RH WIND       PRES   REMARKS
LAS VEGAS      CLOUDY    48  39  71 SW7       30.04S
N. LAS VEGAS   PTCLDY    45  38  76 CALM      30.07S
NELLIS AFB     PTCLDY    46  40  81 E9        30.08S
HENDERSON      MOCLDY    50  38  63 SW9       30.09S
MERCURY        PTCLDY    41  37  86 CALM      30.13F
$$


USA.gov is the U.S. government's official web portal to all federal, state and local government web resources and services.